TimeCDT,TemperatureF,Dew PointF,Humidity,Sea Level PressureIn,VisibilityMPH,Wind Direction,Wind SpeedMPH,Gust SpeedMPH,PrecipitationIn,Events,Conditions,WindDirDegrees,DateUTC
12:09 AM,71.6,69.8,94,29.81,9.0,SSW,9.2,-,0.01,Rain,Light Rain,210,2013-09-21 05:09:00
12:37 AM,71.6,71.6,100,29.80,7.0,SSW,6.9,-,0.04,Rain,Light Rain,210,2013-09-21 05:37:00
12:44 AM,73.4,71.6,94,29.80,7.0,SSW,6.9,-,0.05,Rain,Light Rain,200,2013-09-21 05:44:00
12:53 AM,73.0,71.1,93,29.78,7.0,South,8.1,-,0.06,Rain,Light Rain,190,2013-09-21 05:53:00
1:43 AM,73.4,71.6,94,29.78,3.0,SSW,10.4,-,0.10,Rain,Light Rain,210,2013-09-21 06:43:00
1:53 AM,73.0,71.1,93,29.76,6.0,SW,8.1,-,0.12,Rain,Rain,220,2013-09-21 06:53:00
2:53 AM,70.0,68.0,93,29.76,5.0,North,10.4,17.3,0.14,Rain,Light Rain,360,2013-09-21 07:53:00
3:00 AM,69.8,68.0,94,29.77,8.0,NNE,12.7,18.4,0.01,Rain,Light Rain,20,2013-09-21 08:00:00
3:53 AM,68.0,66.0,93,29.77,7.0,NNE,17.3,26.5,0.06,Rain,Light Rain,30,2013-09-21 08:53:00
3:56 AM,68.0,66.2,94,29.78,8.0,NE,19.6,25.3,0.01,Rain,Light Rain,40,2013-09-21 08:56:00
4:03 AM,66.2,64.4,94,29.78,8.0,NE,17.3,-,0.01,Rain,Light Rain,40,2013-09-21 09:03:00
4:18 AM,66.2,64.4,94,29.78,6.0,NE,15.0,-,0.02,Rain,Rain,40,2013-09-21 09:18:00
4:53 AM,66.9,64.9,93,29.77,9.0,NE,12.7,-,0.06,Rain,Light Rain,40,2013-09-21 09:53:00
5:25 AM,66.2,64.4,94,29.79,5.0,NE,10.4,-,0.01,Rain,Rain,40,2013-09-21 10:25:00
5:53 AM,66.9,64.9,93,29.79,5.0,NNE,9.2,-,0.06,Rain,Light Rain,30,2013-09-21 10:53:00
6:00 AM,66.2,64.4,94,29.80,4.0,NE,10.4,-,0.01,Rain,Rain,40,2013-09-21 11:00:00
6:08 AM,66.2,64.4,94,29.81,4.0,NE,9.2,-,0.02,Rain,Rain,50,2013-09-21 11:08:00
6:53 AM,66.9,66.0,97,29.81,7.0,NE,5.8,-,0.08,Rain,Light Rain,50,2013-09-21 11:53:00
7:00 AM,66.2,66.2,100,29.82,9.0,NNE,5.8,-,0.00,Rain,Light Rain,30,2013-09-21 12:00:00
7:10 AM,66.2,66.2,100,29.82,10.0,NE,3.5,-,0.01,Rain,Light Rain,40,2013-09-21 12:10:00
7:34 AM,68.0,66.2,94,29.82,10.0,NE,6.9,-,0.01,,Overcast,40,2013-09-21 12:34:00
7:41 AM,68.0,66.2,94,29.83,10.0,North,4.6,-,0.01,,Overcast,10,2013-09-21 12:41:00
7:53 AM,68.0,66.0,93,29.82,10.0,North,4.6,-,0.01,,Overcast,350,2013-09-21 12:53:00
8:53 AM,68.0,66.0,93,29.84,10.0,North,4.6,-,N/A,,Overcast,360,2013-09-21 13:53:00
9:23 AM,69.8,66.2,88,29.86,2.5,North,5.8,-,0.01,Rain,Light Rain,10,2013-09-21 14:23:00
9:34 AM,69.8,66.2,88,29.86,3.0,North,6.9,-,0.01,Rain,Light Rain,10,2013-09-21 14:34:00
9:53 AM,68.0,64.0,87,29.86,10.0,NNE,16.1,23.0,0.01,,Overcast,30,2013-09-21 14:53:00
10:19 AM,69.8,62.6,78,29.87,10.0,NE,15.0,-,N/A,,Scattered Clouds,40,2013-09-21 15:19:00
10:48 AM,69.8,64.4,83,29.88,10.0,NNE,9.2,-,N/A,,Mostly Cloudy,30,2013-09-21 15:48:00
10:53 AM,70.0,64.0,81,29.87,10.0,NNE,11.5,-,N/A,,Mostly Cloudy,20,2013-09-21 15:53:00
11:34 AM,71.6,62.6,73,29.88,10.0,NE,12.7,-,N/A,,Scattered Clouds,40,2013-09-21 16:34:00
11:53 AM,72.0,61.0,68,29.87,10.0,NNE,12.7,-,N/A,,Clear,30,2013-09-21 16:53:00
12:53 PM,75.9,62.1,62,29.85,10.0,NE,12.7,-,N/A,,Partly Cloudy,50,2013-09-21 17:53:00
1:53 PM,77.0,60.1,56,29.83,10.0,NNE,10.4,-,N/A,,Partly Cloudy,30,2013-09-21 18:53:00
2:53 PM,78.1,57.9,50,29.81,10.0,North,9.2,-,N/A,,Clear,360,2013-09-21 19:53:00
3:53 PM,78.1,55.9,46,29.80,10.0,NNE,10.4,17.3,N/A,,Clear,30,2013-09-21 20:53:00
4:53 PM,78.1,55.0,45,29.80,10.0,North,9.2,-,N/A,,Clear,10,2013-09-21 21:53:00
5:53 PM,75.9,51.1,42,29.81,10.0,NE,10.4,-,N/A,,Clear,40,2013-09-21 22:53:00
6:53 PM,70.0,54.0,57,29.82,10.0,NNE,8.1,-,N/A,,Clear,30,2013-09-21 23:53:00
7:53 PM,66.9,55.0,66,29.84,10.0,NNE,5.8,-,N/A,,Clear,20,2013-09-22 00:53:00
8:53 PM,63.0,55.0,75,29.86,10.0,NNE,5.8,-,N/A,,Clear,20,2013-09-22 01:53:00
9:53 PM,61.0,55.0,81,29.86,10.0,NNE,5.8,-,N/A,,Clear,30,2013-09-22 02:53:00
10:53 PM,59.0,54.0,83,29.86,10.0,NE,5.8,-,N/A,,Clear,50,2013-09-22 03:53:00
11:53 PM,57.9,54.0,87,29.86,10.0,NNE,4.6,-,N/A,,Clear,30,2013-09-22 04:53:00